User: anonymous   Login
Location: Unspecified
(0.0000°N, 0.0000°E)
Time: 14:16:37
(UTC+00:00)
Language:

GSAT 7 - Orbit

View from above orbital plane
View from above orbital plane
View from above satellite
View from above satellite

Ground track
Ground track

The orbit data is extracted from the following two-line orbital elements,

1 39234U 13044B   16125.17616241 -.00000090  00000-0  00000+0 0  9995
2 39234   0.0903  93.8230 0009257 198.2361  67.8510  1.00271013  9846
Epoch (UTC): 04 May 2016 04:13:40
Eccentricity: 0.0009257
inclination: 0.0903°
perigee height: 35747 km
apogee height: 35825 km
right ascension of ascending node: 93.8230°
argument of perigee: 198.2361°
revolutions per day: 1.00271013
mean anomaly at epoch: 67.8510°
orbit number at epoch: 984

The dashed part of the orbit path shows where the satellite is in the earth's shadow,  

DLR